Tracking 32941 objects as of 16-Jan-2026
HD Live streaming from Space Station
objects crossing your sky now

BPA 1/SL-24 R/B

Track BPA 1/SL-24 R/B now!
10-day predictions


NORAD ID: 36600
Int'l Code: 2010-028C
Perigee: 721.8 km
Apogee: 1,271.7 km
Inclination: 98.3 °
Period: 104.9 minutes
Semi major axis: 7367 km
RCS: 6.6389 m2 (large)
Launch date: June 15, 2010
Source: Commonwealth of Independent States (former USSR) (CIS)
Launch site: Orenburg, Russia (OREN)

Note: This is a ROCKET BODY
Your satellite tracking list
Your tracking list is empty




NASA's NSSDC Master Catalog

Two Line Element Set (TLE):
1 36600U 10028C   26015.65466373 -.00000004  00000-0  22636-4 0  9998
2 36600  98.2771 249.9063 0373183 295.5433  69.8869 13.72781491780903
Source of the keplerian elements: AFSPC